Regional Weather Roundup
Issued by NWS

Home | Current Version | Previous Version | Text Only | Print | Product List | Glossary On
Versions: 1 2 3 4 5 6 7 8 9 10 11 12 13 14 15 16 17 18 19 20 21 22 23 24 25 26 27 28 29 30 31 32 33 34 35 36 37 38 39 40 41 42 43 44 45 46 47 48 49 50
949
ASUS43 KMPX 081610
RWRMN
WEATHER ROUNDUP FOR MINNESOTA
NATIONAL WEATHER SERVICE TWIN CITIES/CHANHASSEN MN
1000 AM CST MON FEB 08 2016


NOTE: "FAIR" INDICATES FEW OR NO CLOUDS BELOW 12,000 FEET WITH NO
SIGNIFICANT WEATHER AND/OR OBSTRUCTIONS TO VISIBILITY. N/A MEANS
CURRENT SKY AND/OR WEATHER CONDITIONS ARE NOT AVAILABLE.

MNZ060>063-068>070-081700-
   Twin Cities Metro

CITY           SKY/WX    TMP DP  RH WIND       PRES   REMARKS
TWIN CITIES    CLOUDY    12   3  67 NW18G30   29.94R WCI  -6
ST PAUL        MIX PCPN  12   3  67 NW18G29   29.95R WCI  -6
CRYSTAL        CLOUDY    12   2  64 NW20G29   29.93R WCI  -6
BLAINE         CLOUDY    12   3  67 NW20G30   29.93R WCI  -6
LAKEVILLE      CLOUDY    10   3  72 NW18G24   29.91R WCI  -8
EDEN PRAIRIE   CLOUDY    13   2  61 NW21G30   29.93R WCI  -5
SOUTH ST PAUL  CLOUDY    13   3  65 NW17G25   29.93R WCI  -4
LAKE ELMO      FLURRIES  14   5  67 NW14G21   29.92R WCI  -1
$$
MNZ001>005-007-008-013>017-022>024-027-028-081700-
   Northwest Minnesota

CITY           SKY/WX    TMP DP  RH WIND       PRES   REMARKS
BEMIDJI        LGT SNOW   6   1  79 NW20G28   30.00S WCI -14
HALLOCK        CLOUDY    10   7  85 N25G31    30.19R HAZE    WCI -10
ROSEAU         LGT SNOW   7   1  78 N21G28    30.10R WCI -13
WARROAD        CLOUDY     5  -2  72 NW21G26   30.08R HAZE    WCI -16
CROOKSTON      SNOW      10   9  92 N29       30.18R VSB 1/2 WCI -11
FOSSTON        LGT SNOW   7   3  85 NW20G25   30.08S WCI -13
DETROIT LAKES  LGT SNOW  10   9  92 N23G33    30.07S VSB 1   WCI -10
MOORHEAD       MIX PCPN  12   9  85 N25G33    30.17R WCI  -8
PARK RAPIDS    LGT SNOW   9   1  70 NW23G32   30.00R WCI -11
MAHNOMEN       CLOUDY     9   5  84 N23       30.08F WCI -12
$$
MNZ006-009>011-018-025>026-081700-
   North Central Minnesota

CITY           SKY/WX    TMP DP  RH WIND       PRES   REMARKS
BAUDETTE       LGT SNOW   4  -3  73 NW18      30.03R WCI -16
FLAG ISLAND    CLOUDY     3  -4  72 N22       30.06S WCI -19
INTL FALLS     CLOUDY     5  -2  72 NW20      29.97R WCI -15
WASKISH        FLURRIES   7   0  72 NW14G20   30.02S WCI -10
LONGVILLE      CLOUDY     7   0  72 NW10G21   29.97R WCI  -8
GRAND RAPIDS   PTSUNNY    3  -4  72 NW23G30   29.92R WCI -19
ORR            CLOUDY     5  -2  72 NW13G21   29.89R WCI -12
COOK           LGT SNOW   5   0  78 NW9G18    29.90R WCI  -9
WALKER         CLOUDY     6  -1  74 NW16G25   30.00R WCI -12
$$
MNZ012-019>021-037-081700-
   Northeast Minnesota

CITY           SKY/WX    TMP DP  RH WIND       PRES   REMARKS
DULUTH         FLURRIES   8   1  73 NW17G25   29.82R WCI -10
ELY            CLOUDY     7   1  78 NW12G17   29.84R WCI  -9
HIBBING        CLOUDY     4  -1  80 NW20      29.89R WCI -17
EVELETH        CLOUDY     9   1  72 NW14      29.88R WCI  -8
DULUTH HARBOR  CLOUDY    12   5  73 NW17G23   29.89R WCI  -5
TWO HARBORS    LGT SNOW  14   7  73 NW8G22    29.80R VSB 1   WCI   3
SILVER BAY     LGT SNOW  14   7  73 NW7G21    29.78R VSB 1   WCI   4
GRAND MARAIS     N/A     12   2  64 CALM      29.82R
G MARAIS ARPRT LGT SNOW   3  -2  78 NW18G26   29.68S WCI -17
$$
MNZ029>031-032-039>041-046>048-054>057-064-081700-
   West Central Minnesota

CITY           SKY/WX    TMP DP  RH WIND       PRES   REMARKS
FERGUS FALLS   SNOW      10   7  85 N24G36    30.12S VSB 1/2 WCI -10
WHEATON        LGT SNOW  16  10  79 NW20G36   30.16R WCI  -1
MORRIS         SNOW      12   9  85 N35G41    30.07R VSB 1/4 WCI -10
ALEXANDRIA     LGT SNOW  10   2  69 N24G37    30.02R WCI -10
ELBOW LAKE     CLOUDY    10   5  79 NW36G43   30.08R HAZE    WCI -13
WADENA         LGT SNOW   9   1  72 NW24G31   30.01R WCI -12
GLENWOOD       CLOUDY    10   3  72 NW26G33   30.02R HAZE    WCI -11
APPLETON       HVY SNOW  14  10  85 N37G43    30.10R VSB<1/4 WCI  -9
BENSON         CLOUDY    12   7  79 N24G35    30.06R WCI  -8
ORTONVILLE     SNOW      14   9  79 N28G38    30.12R VSB 1/2 WCI  -6
MADISON        LGT SNOW  16  10  79 N30G41    30.12R WCI  -4
WILLMAR        CLOUDY    14   7  73 NW26G35   30.03R WCI  -6
$$
MNZ033>034-036-042>043-049>051-058-059-081700-
   Central Minnesota

CITY           SKY/WX    TMP DP  RH WIND       PRES   REMARKS
ST CLOUD       LGT SNOW  10   2  69 NW16G29   29.97R WCI  -7
SAUK CENTRE    LGT SNOW  10   2  73 NW21G28   30.00R WCI -10
PAYNESVILLE    PTSUNNY   11   3  72 NW20G26   30.01R WCI  -8
AITKIN         MIX PCPN  10  -2  56 NW12G21   29.93R WCI  -4
PINE RIVER     FLURRIES   7   1  78 NW13G22   30.01R WCI  -9
BRAINERD       CLOUDY     7   0  73 NW18G28   29.97R BLWGSNOWWCI -12
STAPLES        FLURRIES   9   0  66 N20G25    30.00R WCI -11
LONG PRAIRIE   LGT SNOW   9   3  78 NW20G28   30.00R WCI -11
LITTLE FALLS   CLOUDY    10   1  67 NW15G21   29.99R WCI  -6
LITCHFIELD     CLOUDY    10   7  85 NW25G31   29.99R HAZE    WCI -10
BUFFALO        CLOUDY    11   5  75 NW15      29.97S HAZE    WCI  -5
MAPLE LAKE     CLOUDY    12   6  77 NW18G25   29.98R HAZE    WCI  -5
$$
MNZ037-044-045-052-053-081700-
   East Central Minnesota

CITY           SKY/WX    TMP DP  RH WIND       PRES   REMARKS
PRINCETON      CLOUDY    10   3  72 NW14G23   29.94R WCI  -5
MORA           CLOUDY    10   1  67 NW18G25   29.94R WCI  -8
CAMBRIDGE      CLOUDY    12   1  62 NW18      29.92R WCI  -5
RUSH CITY      CLOUDY    11   2  68 NW12G21   29.92R WCI  -3
MOOSE LAKE     FLURRIES   9   1  72 NW12G17   29.89R WCI  -6
HINCKLEY       CLOUDY    12   3  67 NW17G23   29.91R WCI  -5
CLOQUET        LGT SNOW   9   1  72 NW16G29   29.86R WCI  -9
MCGREGOR       CLOUDY     9   1  72 NW17G25   29.92R WCI -10
$$
MNZ071>073-080-081-089-090-097-098-081700-
   Southwest Minnesota

CITY           SKY/WX    TMP DP  RH WIND       PRES   REMARKS
MONTEVIDEO     CLOUDY    12  10  92 N32G43    30.09R FOG     WCI -10
GRANITE FALLS  LGT SNOW  15   9  78 NW33G44   30.08R WCI  -7
CANBY          CLOUDY    18  13  81 NW23G33   30.12R FOG     WCI   0
MARSHALL       LGT SNOW  13   8  81 N30G39    30.06R WCI  -8
REDWOOD FALLS  CLOUDY    14   5  67 NW24G35   30.03R WCI  -5
OLIVIA         CLOUDY    16   9  73 N29G37    30.02S HAZE    WCI  -4
PIPESTONE      SUNNY     18   9  68 N20G35    30.05R WCI   1
WINDOM         HVY SNOW  12   9  85 NW35G45   30.00R VSB<1/4 WCI -10
WORTHINGTON    CLOUDY   N/A N/A N/A N36G41    30.02R VSB<1/4
JACKSON        CLOUDY    14   9  79 NW32G49   29.98R WCI  -7
TRACY          MOSUNNY   14   7  75 N38G48    30.05R HAZE    WCI  -9
SLAYTON        SNOW      12  10  92 N25G45    30.03R VSB 1/4 WCI  -8
$$
MNZ065>067-074>077-082>085-091>093-081700-
   South Central Minnesota

CITY           SKY/WX    TMP DP  RH WIND       PRES   REMARKS
MANKATO        CLOUDY    12   5  73 NW25G32   29.95R WCI  -8
NEW ULM        SNOW      10   7  85 NW28      29.98R VSB 1/2 WCI -11
ST JAMES       SNOW      12  10  92 NW32G39   30.00R VSB 1/4 WCI -10
FAIRMONT       CLOUDY    12   5  73 NW29G39   29.95R VSB 1/4 WCI  -9
GLENCOE        CLOUDY    13   8  81 NW21G28   29.97R HAZE    WCI  -5
FARIBAULT      CLOUDY    10   3  72 NW15G24   29.92R WCI  -6
OWATONNA       CLOUDY    10   5  79 NW26      29.90R HAZE    WCI -11
WASECA         CLOUDY    12   7  79 NW17G28   29.94R HAZE    WCI  -5
ALBERT LEA     CLOUDY    10   7  85 NW17G23   29.89R HAZE    WCI  -7
$$
MNZ078>079-086>088-094>096-081700-
   Southeast Minnesota

CITY           SKY/WX    TMP DP  RH WIND       PRES   REMARKS
ROCHESTER      LGT SNOW  12   5  73 NW25      29.82R WCI  -8
RED WING       CLOUDY    14   3  62 NW13G21   29.89R WCI   0
STANTON        LGT SNOW  13   6  72 NW17      29.90R WCI  -3
DODGE CENTER   CLOUDY    10   7  85 NW24      29.85R HAZE    WCI -10
WINONA         CLOUDY    18  10  73 NW18G24   29.85R WCI   2
AUSTIN         CLOUDY    10   7  85 NW20G29   29.86R HAZE    WCI  -8
PRESTON        CLOUDY    12   6  74 N20G30    29.80S WCI  -6
$$
ABBREVIATIONS USED IN REMARKS
   TC - TEMPERATURES IN CELSIUS
  WCI - WIND CHILL INDEX
   HX - HEAT INDEX
  VSB - VISIBILITY
$$




USA.gov is the U.S. government's official web portal to all federal, state and local government web resources and services.